Flag for U.S.A. Weather past 2 weeks in Chula Vista, California, U.S.A.

Now
58 °F

Mostly cloudy.


Feels Like: 57 °F
Forecast: 56 / 66 °F
Wind: 6 mph from West

Location: Brown Field Municipal Airport

Current Time: May 24, 2015 at 5:14:16 AM

Latest Report: May 24, 2015 at 4:53 AM


Visibility: 10 mi

Pressure: 30.00 "Hg

Humidity: 81%

Dew point: 52 °F

Location of Chula VistaLocation

Historic Weather in Chula Vista — Graph

°F

Chula Vista temperature yesterday

Maximum temperature yesterday: 68 °F (at 2:53 PM)
Minimum temperature yesterday: 57 °F (at 3:03 AM)
Average temperature yesterday: 61 °F

Past Weeks' High & Low Weather Summary

 TemperatureHumidityPressure
High72 °F (May 11, 2:53 PM)100% (May 11, 4:53 AM)30.11 "Hg (May 11, 4:53 AM)
Low52 °F (May 17, 3:53 AM)47% (May 14, 11:53 AM)29.80 "Hg (May 15, 2:53 PM)
Average60 °F75%29.98 "Hg
* Reported May 9 3:53 AM — May 24 3:53 AM, Chula Vista, Weather by CustomWeather, © 2015

Note: Actual official high and low records may vary slightly from our data, if they occured in-between our weather recording intervals... More about our weather records

Advertising

Chula Vista weather history for previous 24 hours

 ConditionsComfort  
Time TempWeatherWind HumidityBarometerVisibility
3:53 AM
Sun, May 24
59 °FOvercast.8 mph75%29.99 "Hg10 mi
2:53 AM59 °FOvercast.6 mph78%29.99 "Hg10 mi
1:53 AM59 °FOvercast.6 mph78%30.00 "Hg10 mi
12:53 AM59 °FOvercast.3 mph78%30.01 "Hg10 mi
11:53 PM
Sat, May 23
60 °FOvercast.3 mph75%30.02 "Hg10 mi
10:53 PM60 °FOvercast.3 mph75%30.04 "Hg10 mi
9:53 PM60 °FOvercast.3 mph78%30.05 "Hg10 mi
8:53 PM60 °FOvercast.8 mph78%30.05 "Hg10 mi
7:53 PM60 °FOvercast.7 mph78%30.05 "Hg10 mi
6:53 PM61 °FScattered clouds.9 mph72%30.04 "Hg10 mi
6:00 PM62 °FPassing clouds.12 mph70%30.05 "Hg10 mi
4:53 PM64 °FPartly sunny.9 mph65%30.04 "Hg10 mi
3:53 PM66 °FSunny.12 mph56%30.05 "Hg10 mi
2:53 PM68 °FPassing clouds.14 mph57%30.06 "Hg10 mi
2:00 PM67 °FPartly sunny.10 mph59%30.09 "Hg10 mi
12:53 PM67 °FPartly sunny.12 mph61%30.09 "Hg10 mi
11:53 AM67 °FScattered clouds.9 mph61%30.10 "Hg10 mi
10:53 AM65 °FPartly sunny.10 mph66%30.10 "Hg10 mi
9:53 AM62 °FBroken clouds.14 mph70%30.10 "Hg10 mi
8:53 AM61 °FPartly sunny.7 mph81%30.11 "Hg10 mi
7:53 AM59 °FOvercast.8 mph90%30.10 "Hg10 mi
6:53 AM58 °FMostly cloudy.No wind93%30.08 "Hg9 mi
5:53 AM57 °FPassing clouds.3 mph93%30.07 "Hg10 mi
Weather by CustomWeather, © 2015

See weather overviewHow to use our weather pages